TimePST,TemperatureF,Dew PointF,Humidity,Sea Level PressureIn,VisibilityMPH,Wind Direction,Wind SpeedMPH,Gust SpeedMPH,PrecipitationIn,Events,Conditions,WindDirDegrees,DateUTC
12:00 AM,-9999,-9999,N/A,-9999,-9999.0,North,-9999.0,-,N/A,,Unknown,0,2013-11-24 08:00:00
12:53 AM,28.9,21.0,72,30.13,-9999.0,SSW,4.6,-,N/A,,Unknown,200,2013-11-24 08:53:00
1:53 AM,32.0,23.0,69,30.12,-9999.0,Variable,3.5,-,N/A,,Unknown,0,2013-11-24 09:53:00
2:53 AM,30.9,24.1,76,30.12,-9999.0,SW,5.8,-,N/A,,Unknown,230,2013-11-24 10:53:00
3:53 AM,30.9,24.1,76,30.13,-9999.0,Calm,Calm,-,N/A,,Unknown,0,2013-11-24 11:53:00
4:53 AM,30.0,24.1,79,30.14,-9999.0,Calm,Calm,-,N/A,,Unknown,0,2013-11-24 12:53:00
5:53 AM,28.9,21.0,72,30.17,-9999.0,NNE,4.6,-,N/A,,Unknown,30,2013-11-24 13:53:00
6:53 AM,28.9,21.9,75,30.20,-9999.0,SSE,5.8,-,N/A,,Unknown,150,2013-11-24 14:53:00
7:53 AM,30.0,23.0,75,30.20,-9999.0,SSW,3.5,-,N/A,,Unknown,200,2013-11-24 15:53:00
8:53 AM,34.0,21.9,61,30.20,-9999.0,Calm,Calm,-,N/A,,Unknown,0,2013-11-24 16:53:00
9:53 AM,37.0,12.9,37,30.19,-9999.0,Calm,Calm,-,N/A,,Unknown,0,2013-11-24 17:53:00
10:53 AM,37.9,15.1,39,30.19,-9999.0,NNE,3.5,-,N/A,,Unknown,30,2013-11-24 18:53:00
11:53 AM,37.9,15.1,39,30.18,-9999.0,ESE,3.5,-,N/A,,Unknown,110,2013-11-24 19:53:00
12:53 PM,41.0,14.0,33,30.17,-9999.0,NE,4.6,-,N/A,,Unknown,40,2013-11-24 20:53:00
1:53 PM,41.0,14.0,33,30.15,-9999.0,Calm,Calm,-,N/A,,Unknown,0,2013-11-24 21:53:00
2:53 PM,41.0,15.1,35,30.17,-9999.0,SSW,3.5,-,N/A,,Unknown,200,2013-11-24 22:53:00
3:53 PM,41.0,16.0,36,30.18,-9999.0,West,3.5,-,N/A,,Unknown,270,2013-11-24 23:53:00
4:53 PM,32.0,21.0,64,30.24,-9999.0,Calm,Calm,-,N/A,,Unknown,0,2013-11-25 00:53:00
5:53 PM,27.0,18.0,69,30.29,-9999.0,Calm,Calm,-,N/A,,Unknown,0,2013-11-25 01:53:00
6:53 PM,25.0,18.0,75,30.30,-9999.0,South,6.9,-,N/A,,Unknown,190,2013-11-25 02:53:00
7:53 PM,21.9,17.1,82,30.33,-9999.0,SSE,3.5,-,N/A,,Unknown,160,2013-11-25 03:53:00
8:53 PM,21.0,16.0,81,30.33,-9999.0,South,5.8,-,N/A,,Unknown,180,2013-11-25 04:53:00
9:53 PM,21.0,15.1,78,30.32,-9999.0,South,6.9,-,N/A,,Unknown,180,2013-11-25 05:53:00
10:53 PM,19.9,15.1,81,30.33,-9999.0,SSE,4.6,-,N/A,,Unknown,160,2013-11-25 06:53:00
11:53 PM,21.0,15.1,78,30.32,-9999.0,South,6.9,-,N/A,,Unknown,190,2013-11-25 07:53:00